Location: Br�ttisellen
(47.4227°N, 8.6287°E)
Time: 03:46:50
(UTC+00:00)

MetOp-A - Pass Details

Date: 09 April 2020
Orbit: 819 x 821 km, 98.5° (Epoch: 26 May)

Event Time Altitude Azimuth Distance (km) Brightness Sun altitude
Exits shadow 19:13:31 - 155° (SSE) 2,669 6.3 -11.5°
Reaches altitude 10° 19:14:10 10° 154° (SSE) 2,413 6.1 -11.6°
Maximum altitude 19:19:29 70° 72° (ENE) 875 4.1 -12.4°
Drops below altitude 10° 19:24:50 10° 350° (N) 2,429 7.1 -13.2°
Sets 19:27:12 0° 348° (NNW) 3,366 7.9 -13.5°
